STARLINK-4439 (53498 NORAD) Tracking and Keplerian Element Data

This shows tracking and keplerian element data for the satellite.

Feedback or suggestion? Click here.




ElementValue
Catalog53498
NameSTARLINK-4439
Epoch Orbit1552
Epoch Day325.27487274
Epoch Year2022
RAAN84.3407
Inclination97.6559
Eccentricity0.0003492
Argument of Perigee21.1779
Mean Anonmoly338.959
Mean Motion15.01265071
Decay Rate1.945E-05
L11 53498U 22099AK 22325.27487274 .00001945 00000+0 15597-3 0 9994
L22 53498 97.6559 84.3407 0003492 21.1779 338.9590 15.01265071 15521



Live tracking and technical data element details for STARLINK-4439 (NORAD 53498). STARLINK-4439 can be tracked NOW for your location showing map with azimuth and elevation plus other details from your city location.







IsCatalogInMostPopularTable: catalog: 53498, numindb: 6
Update: records affected: 1



GetName: 53498 STARLINK-4439

Hit Count: updated at: Thu, 08 Dec 2022 19:32:01 GMT